Overview Statistics Trail Chart Weather Telemetry Raw packets
 

This is the latest recevied weather packets stored in our database for station/object N4BBA. If no packets are shown the sender has not sent any weather packets the latest 10 day(s).

<< 14 15 16 17 18 19 20 >>
Time Temp. Humidity Pressure Rain* Wind** Luminosity Snow
1777658300 11.11° C 83% 1015 hPa 1.78 mm - 128 W/m² -
1777657996 11.11° C 82% 1015.2 hPa 0 mm - 82 W/m² -
1777657693 11.11° C 81% 1014.7 hPa 0 mm - 144 W/m² -
1777657390 11.11° C 80% 1015.1 hPa 0 mm - 60 W/m² -
1777657088 11.11° C 79% 1014.8 hPa 1.27 mm - 88 W/m² -
1777656785 11.67° C 78% 1015.1 hPa 1.27 mm - 67 W/m² -
1777656481 11.11° C 75% 1015.1 hPa 0 mm - 87 W/m² -
1777656176 11.67° C 72% 1015.1 hPa 0 mm - 58 W/m² -
1777655872 12.78° C 69% 1014.9 hPa 0 mm - 90 W/m² -
1777655569 12.78° C 66% 1015 hPa 0 mm - 134 W/m² -
1777655266 13.89° C 61% 1015.3 hPa 0 mm - 104 W/m² -
1777654963 14.44° C 58% 1015 hPa 0 mm - 165 W/m² -
1777654660 14.44° C 59% 1015.1 hPa 0 mm - 153 W/m² -
1777654358 14.44° C 57% 1015.3 hPa 0 mm - 105 W/m² -
1777654055 15° C 56% 1014.9 hPa 0 mm - 166 W/m² -
1777653752 15.56° C 55% 1015.3 hPa 0 mm - 172 W/m² -
1777653448 16.11° C 55% 1015.1 hPa 0 mm - 246 W/m² -
1777653146 16.11° C 57% 1015 hPa 0 mm - 413 W/m² -
1777652841 15.56° C 57% 1015.1 hPa 0 mm - 423 W/m² -
1777652538 16.11° C 56% 1015.1 hPa 0 mm - 366 W/m² -
1777652235 15.56° C 57% 1015.2 hPa 0 mm - 904 W/m² -
1777651933 15.56° C 58% 1015.1 hPa 0 mm - 432 W/m² -
1777651629 15.56° C 58% 1015.4 hPa 0 mm - 433 W/m² -
1777651326 15.56° C 59% 1015.4 hPa 0 mm - 581 W/m² -
1777651023 16.11° C 60% 1015.1 hPa 0 mm - 793 W/m² -

* Rain latest hour (hover to see other rain measurements)
** Current wind speed in m/s (hover to see current wind gust speed)